SBGLGOOY

Guest
Details From SBGL - Galeao Antonio Carlos Jombim
To GOOY - Dakar Leopold Sedar Senghor Intl
Flight Number -
Tags decoded
Created
Modified
Stats Distance 2,743 nm / 5,081 km
Max Altitude 0 ft / 0 m
Waypoints 7
Social Downloads 0
Likes 0
Share VATSIM

Download

Looking for another format? Having issues loading an existing format? Contact us
Advertisement - Login to hide

Notes

Requested: SBGL ADA UL340 LOBIK UM661 PAMOX UL206 KODOS TAROT UA302 BOMSA GOOY Unmatched points: UL340 LOBIK UM661 PAMOX UL206

Route

SBGL ADA KODOS TAROT UA302 BOMSA GOOY

ID Type Via Altitude Latitude Longitude Leg Dist Tot Dist Heading (true) Name
O SBGL APT - 0 ft / 0 m -22.80894˚ -43.24368˚ - 0 nm - Galeao Antonio Carlos Jombim
ADA NDB - 0 ft / 0 m -22.82296˚ -42.09649˚ 63 nm 63 nm 91° / 91° ALDEIA NDB
KODOS FIX - 0 ft / 0 m 1.20300˚ -26.21700˚ 1716 nm 1779 nm 35° / 32° -
TAROT FIX - 0 ft / 0 m 11.46500˚ -19.66667˚ 729 nm 2509 nm 32° / 33° -
INIRO FIX UA302 (AWY-HI) 0 ft / 0 m 13.33194˚ -18.42778˚ 133 nm 2642 nm 33° / 33° -
BOMSA FIX UA302 (AWY-HI) 0 ft / 0 m 13.96889˚ -18.00000˚ 45 nm 2688 nm 33° / 33° -
O GOOY APT - 0 ft / 0 m 14.73971˚ -17.49023˚ 54 nm 2743 nm 33° / 33° Dakar Leopold Sedar Senghor Intl

Altitude Profile

Advertisement - Login to hide

Weather


0- 5 10 15 20 25 30 35+ Temperature / ° C

Clouds and Precipitation
Forecast for 2018-05-26 12:00 UTC. Updated 2 hours ago

Ground ~20,000 ft ~40,000 ft Winds

SBGL

Details ICAO SBGL (GIG)
Name Galeao Antonio Carlos Jombim
Region Brazil
Timezone America/Sao_Paulo (UTC-3.0)
Stats Elevation 28 ft / 9 m (AMSL)
Location -22.808938° -43.243681°
Runways 2
Magnetic Variation 22.812° W

METAR

SBGL 261200Z 02003KT 9999 FEW015 22/18 Q1023

Decode

TAF

TAF SBGL 260800Z 2612/2718 05005KT 8000 SCT015 TX26/2617Z TN19/2709Z BECMG 2614/2616 16010KT 9999 SCT025 BECMG 2620/2622 13005KT FEW020 BECMG 2703/2705 09005KT BECMG 2709/2711 02005KT 7000 SCT015 BECMG 2713/2715 16005KT FEW025 RMK PGZ

Decode

Departure Runways

ID Width Length Bearing (true) Bearing (mag) Surface Threshold Offset Overrun Length
10 148 ft / 45 m 13,128 ft / 4,001 m 74.39° 97.20° Concrete 0 ft / 0 m 175 ft / 53 m
15 154 ft / 47 m 10,418 ft / 3,175 m 125.78° 148.59° Asphalt 0 ft / 0 m 185 ft / 56 m
28 148 ft / 45 m 13,128 ft / 4,001 m 254.38° 277.19° Concrete 0 ft / 0 m 175 ft / 53 m
33 154 ft / 47 m 10,418 ft / 3,175 m 305.78° 328.59° Asphalt 0 ft / 0 m 185 ft / 56 m

GOOY

Details ICAO GOOY (DKR)
Name Dakar Leopold Sedar Senghor Intl
Region Senegal
Timezone Africa/Dakar (UTC+0.0)
Stats Elevation 85 ft / 26 m (AMSL)
Location 14.739711° -17.490226°
Runways 2
Magnetic Variation 7.297° W

METAR

GOOY 261200Z 34004KT CAVOK 24/19 Q1013

Decode

TAF

TAF GOOY 261130Z 2612/2718 34008KT CAVOK= TAF GBYD 261130Z 2612/2718 28007KT 9999 SCT010

Decode

Destination Runways

ID Width Length Bearing (true) Bearing (mag) Surface Threshold Offset Overrun Length
03 98 ft / 30 m 4,921 ft / 1,500 m 22.31° 29.61° Asphalt 0 ft / 0 m 98 ft / 30 m
18 148 ft / 45 m 11,511 ft / 3,509 m 172.57° 179.87° Asphalt 525 ft / 160 m 197 ft / 60 m
21 98 ft / 30 m 4,921 ft / 1,500 m 202.31° 209.61° Asphalt 0 ft / 0 m 1,590 ft / 485 m
36 148 ft / 45 m 11,511 ft / 3,509 m 352.57° 359.87° Asphalt 0 ft / 0 m 197 ft / 60 m

Approach Navaids

Runway Type Ident Frequency Range Bearing (true) Bearing (mag) Slope Elevation
36 Localiser YF 110.30 MHz 18 nm / 33 km 352.33° 359.62° - 65 ft / 20 m (AMSL)
36 Glidescope YF 110.30 MHz 10 nm / 19 km 352.57° 359.87° 3.01° 73 ft / 22 m (AMSL)
36 DME YF 110.30 MHz 18 nm / 33 km - - - 73 ft / 22 m (AMSL)

Popular Alternatives